Погода в Счастье

Украина / Луганская область     48°44′13″N   39°14′03″E
темп.,
°C
ветер,
м/с
пор.,
м/с
влажн.,
%
обл.,
%
осадки,
мм/ч
давл.,
гПа
погр.,
м
5 марта, пт
пт523:00+3юз6167737 0.0 1011661
02:00+3юз6168568 0.0 1011609
05:00+3зюз71388100 0.0 1010657
08:00+4зюз61288100 0.0 1011600
11:00+5зюз61184100 0.0 1012714
14:00+5зюз6991100 0.2 1012672
17:00+4зсз2597100 1.3 1013289
20:00+3ссв1298100 2.7 101473
6 марта, сб
сб623:00+2св3498100 0.9 1013153
02:00+2св4598100 3.0 1012171
05:00+1ссв5798100 3.2 1010244
08:000ссв5898100 5.2 1010425
11:00+1с71095100 1.4 1012640
14:00+1ссз7987100 1.7 1014839
17:00−1сз81171100 0.3 1016971
20:00−3сз7126652 0.3 10191194
7 марта, вс
вс723:00−3сз711640 0.0 10211111
02:00−3сз69620 0.0 10221014
05:00−3зсз57630 0.0 1023883
08:00−2зюз57590 0.0 1024815
11:00+1зюз79500 0.0 10221464
14:00+2зюз8124820 0.0 10191550
17:000зюз6135584 0.0 1017692
20:00−1зюз7155778 0.0 1016836
8 марта, пн
пн823:00−1зюз715560 0.0 1015720
02:00−1зюз715620 0.0 1013686
05:00−1зюз7156841 0.0 1012705
08:00+1зюз9146469 0.0 10121307
11:00+3з91359100 0.0 10121442
14:00+3з81165100 0.0 10121319
17:00+1з4107397 0.0 1013429
20:00−1з348068 0.0 1015106
9 марта, вт
вт923:00−1юз2381100 0.0 101559
02:00−1юз2588100 0.0 1014241
05:00−1зюз2395100 0.1 1013206
08:000юз2291100 0.6 1013275
11:00+1з5992100 0.7 1013664
14:00+1ссз5770100 1.0 10141073
17:00−1ссз7108673 0.4 1015682
20:00−3с387848 0.4 1018404